www.pogodaiklimat.ru

Погода и климат >> Архив погоды >> Россия >> Татарстан >> Казань


АРХИВ ПОГОДЫ в Казани

Время (UTC), дата Ветер
(напр.,м/с)
 
Видим.   Явления Облачность Т
(С)
Тd
(С)
f
(%)
Тe
(С)
Тes
(С)
Комфортность P
(гПа)
Po
(гПа)
Тmin
(С)
Tmax
(С)
R
(мм)
R24
(мм)
S
(см)
06 19.08 ЮВ 1 10 км {дождь} 10/10 600 м
[Sc]
+20.5 +15.6 73 +24 +24 комфорт 1018.5 1004.8 +18.5
09 19.08 ЮВ 1 10 км в посл. час дождь 10/10 600 м
[Sc]
+22.3 +16.4 69 +27 +27 душно 1018.2 1004.6
12 19.08 ЮВ 1 10 км {дождь} 9/9 600 м
[Sc Ac trans]
+25.5 +16.2 56 +29 +30 душно 1017.7 1004.3
15 19.08 В 1 10 км {дождь} 10/10 600 м
[Sc]
+23.8 +17.3 67 +28 +28 душно 1017.3 1003.8 +25.9
18 19.08 СЗ 1 10 км {дождь} 10/0
[As op]
+21.9 +18.0 79 +27 +27 душно 1017.7 1004.1
21 19.08 штиль 0 10 км 4/0
[Ac trans]
+19.8 +18.6 93 +22 +22 комфорт 1017.7 1004.0
00 20.08 З 2 10 км ясно +19.0 +19.0 100 +21 +21 комфорт 1018.1 1004.4
03 20.08 СЗ 1 10 км ясно +18.7 +16.9 89 +21 +22 комфорт 1019.2 1005.4 +18.2
06 20.08 З 3 10 км ясно +21.4 +16.0 71 +25 +31 комфорт 1019.7 1006.0
09 20.08 З 3 10 км 3/3 1000 м
[Cu med, cong]
+23.9 +15.5 59 +27 +33 жарко 1019.4 1005.9
12 20.08 З 3 10 км 4/4 1000 м
[Cu med, cong]
+25.8 +14.2 49 +28 +31 жарко 1019.6 1006.1
15 20.08 С 2 10 км 1/1 600 м
[Sc diur, vesp]
+23.8 +15.4 59 +27 +27 жарко 1020.0 1006.4 +26.1
18 20.08 СЗ 1 10 км ясно +19.7 +14.9 74 +23 +23 комфорт 1021.0 1007.3
21 20.08 штиль 0 10 км ясно +17.4 +15.1 86 +17 +17 тепло 1021.7 1007.8
00 21.08 штиль 0 10 км ясно +16.2 +15.7 97 +16 +16 тепло 1021.8 1007.9
03 21.08 СЗ 1 10 км ясно +17.1 +15.5 90 +18 +19 тепло 1022.4 1008.5 +15.5
06 21.08 З 2 10 км 6/6 1000 м
[Cu med, cong]
+22.0 +16.6 71 +26 +29 душно 1022.5 1008.9
09 21.08 С 2 10 км 6/6 600 м
[Cu hum]
+23.8 +14.8 57 +27 +31 жарко 1022.2 1008.6
12 21.08 С 1 10 км 5/5 600 м
[Cu hum]
+26.5 +13.8 46 +29 +32 жарко 1021.6 1008.1
15 21.08 С 1 10 км 8/0
[Ci fib]
+25.0 +14.0 50 +27 +28 жарко 1022.1 1008.6 +26.6
18 21.08 штиль 0 10 км ясно +19.2 +16.2 83 +21 +21 комфорт 1022.4 1008.6
21 21.08 штиль 0 10 км ясно +17.7 +16.8 94 +18 +18 тепло 1022.5 1008.6
00 22.08 штиль 0 10 км ясно +16.6 +16.5 99 +16 +16 тепло 1022.6 1008.7
03 22.08 штиль 0 10 км ясно +18.3 +15.8 85 +19 +20 тепло 1022.9 1009.1 +15.9
06 22.08 ЮЗ 2 10 км 3/0
[Ci fib]
+24.1 +16.7 63 +28 +34 душно 1022.1 1008.6
09 22.08 З 2 10 км 4/4 1000 м
[Cu med, cong]
+27.0 +17.1 55 +31 +38 душно 1021.0 1007.6
12 22.08 З 2 10 км 5/4 600 м
[Cu med, cong Ci fib]
+27.3 +17.1 54 +31 +35 душно 1020.3 1006.9
15 22.08 ЮВ 1 10 км 3/0
[Ci fib]
+25.6 +17.1 59 +29 +30 душно 1019.3 1005.9 +28.2
18 22.08 штиль 0 10 км 3/0
[Ac trans]
+21.2 +17.0 77 +25 +25 комфорт 1019.8 1006.1
21 22.08 ЮВ 1 10 км 8/0
[Ac trans]
+20.6 +15.3 72 +25 +25 комфорт 1019.0 1005.3
00 23.08 З 1 10 км ясно +19.3 +16.0 81 +22 +22 комфорт 1019.3 1005.5
03 23.08 СЗ 2 10 км 10/10 600 м
[Sc]
+17.7 +15.1 85 +18 +18 тепло 1021.3 1007.5 +17.7
06 23.08 СЗ 2 10 км 8/6 600 м
[Cu hum Ci fib]
+18.1 +13.0 72 +19 +21 тепло 1023.3 1009.4 +16.9
09 23.08 СЗ 3 10 км 6/0
[Ci fib]
+21.2 +9.5 47 +23 +31 комфорт 1023.7 1010.0
12 23.08 С 2 10 км 6/0
[Ci fib]
+22.9 +8.2 39 +24 +29 комфорт 1023.6 1009.9
15 23.08 СЗ 2 10 км 9/0
[Ci fib]
+21.1 +8.2 43 +22 +22 комфорт 1024.1 1010.3 +23.1
18 23.08 СЗ 1 10 км 9/0
[Ci fib]
+18.3 +9.2 55 +20 +20 тепло 1024.8 1010.9
21 23.08 штиль 0 10 км 6/0
[Ci fib]
+15.0 +10.0 72 +15 +15 по сезону 1025.3 1011.3
00 24.08 СЗ 1 10 км ясно +13.2 +10.3 83 +13 +13 по сезону 1025.5 1011.4
03 24.08 штиль 0 10 км ясно +13.6 +10.9 84 +13 +14 по сезону 1025.9 1011.7 +12.5
06 24.08 З 1 10 км ясно +19.6 +10.9 57 +22 +30 комфорт 1025.5 1011.7
09 24.08 З 2 10 км 5/5 1000 м
[Cu med, cong]
+21.8 +6.8 38 +23 +28 комфорт 1024.3 1010.6
12 24.08 ЮЗ 1 10 км 10/4 1000 м
[Cu med, cong Cs]
+22.9 +8.1 39 +24 +27 комфорт 1022.3 1008.7
15 24.08 Ю 1 10 км 10/0
[Ac lent Cs]
+20.9 +10.2 50 +24 +24 комфорт 1020.8 1007.1 +23.2
18 24.08 ЮВ 1 10 км 10/0
[Cs]
+16.4 +11.2 71 +17 +17 тепло 1020.1 1006.2
21 24.08 В 1 10 км 4/0
[Ac lent]
+14.5 +10.8 78 +15 +15 по сезону 1018.4 1004.4
00 25.08 З 1 10 км 10/10 600 м
[Sc]
+15.2 +10.6 74 +16 +16 тепло 1016.7 1002.8
03 25.08 З 3 10 км 8/0
[Ac lent]
+16.1 +11.5 74 +16 +16 тепло 1016.3 1002.4 +13.8
06 25.08 З 3 10 км 8/8 600 м
[Cu med, cong]
+18.3 +12.1 67 +19 +20 тепло 1016.2 1002.5
09 25.08 З 5-10
{10}
10 км 4/4 1000 м
[Cu hum]
+17.8 +9.2 57 +17 +18 по сезону 1016.5 1002.7
12 25.08 СЗ 5
{11}
10 км 4/4 1000 м
[Cu hum]
+18.7 +9.8 56 +19 +21 по сезону 1017.2 1003.4
15 25.08 СЗ 3
{11}
10 км в посл. час ливневой дождь 8/8 600 м
[Cb cap Ac trans]
+15.8 +12.6 81 +15 +15 прохладно 1018.8 1004.9 +20.2 0.5
18 25.08 СЗ 2 10 км {ливн. осадки} 5/0
[Ac trans]
+14.7 +9.9 73 +14 +14 по сезону 1021.3 1007.3
21 25.08 СЗ 2 10 км ясно +12.7 +9.8 83 +12 +12 по сезону 1022.7 1008.6
00 26.08 СЗ 2 10 км ясно +11.1 +8.9 86 +10 +10 по сезону 1024.0 1009.8
03 26.08 СЗ 2 10 км ясно +10.9 +8.7 86 +10 +10 прохладно 1025.8 1011.5 +10.3

 

Местоположение метеостанции Казань (Татарстан, Россия): широта 55.73 долгота 49.20 высота над уровнем моря 119 м.

В архиве по умолчанию представлена погода в Казани за последнюю неделю. Архивные данные за месяц целиком и за предыдущие месяцы, начиная с января 2011 года, Вы можете получить, выбрав интересующий диапазон дат из раскрывающегося списка и нажав кнопку "Ввод!".


*Определитесь, кто Вы:
робот инопланетянин человек

Внимание! Время в таблицах - всемирное. Для получения местного времени необходимо прибавить поправку, которая равна 3 ч.

Смотрите также архив погоды в соседних городах и на ближайших метеорологических станциях:

Погода в Лаишево (Татарстан, Россия) (40 км)
Погода в Вязовых (Татарстан, Россия) (44 км)
Погода в Арске (Татарстан, Россия) (57 км)
Погода в Камском Устье (Татарстан, Россия) (58 км)
Погода в Больших Кайбицах (Татарстан, Россия) (74 км)
Погода в Алексеевском (Татарстан, Россия) (74 км)
Погода в Морках (Марий-Эл, Россия) (79 км)
Погода в Богатых Сабах (Татарстан, Россия) (84 км)
Погода в Тетюшах (Татарстан, Россия) (91 км)
Погода в Чистополе (Татарстан, Россия) (102 км)

Пояснения к столбцам:

Ветер - указаны скорость ветра в м/с - средняя за 10 мин, порывы в срок и между сроками (в фигурных скобках) и направление, откуда дует ветер: С - северный, СВ - северо-восточный, В - восточный, ЮВ - юго-восточный, Ю - южный, ЮЗ - юго-западный, З - западный, СЗ - северо-западный.
Видимость - горизонтальная дальность видимости в метрах или километрах. При видимости от 1 до 10 км при отсутствии осадков обычно наблюдается дымка, при ухудшении видимости до 1 км и менее - туман. В сухую погоду видимость может ухудшаться дымом, пылью или мглою.
Явления - указаны атмосферные явления, наблюдавшиеся в срок или в последний час перед сроком; фигурными скобками обозначены явления, наблюдавшиеся между сроками (за 1-3 часа до срока); квадратными скобками обозначены град или гололедные отложения с указанием их диаметра в мм.
Облачность - указаны через наклонную черту общая и нижняя облачность в баллах и высота нижней границы облаков в метрах; квадратными скобками обозначены формы облаков: Ci - перистые, Cs - перисто-слоистые, Cc - перисто-кучевые, Ac - высококучевые, As - высокослоистые, Sc - слоисто-кучевые, Ns - слоисто-дождевые, Cu - кучевые, Cb - кучево-дождевые. Подробнее классификацию облаков см. в Атласе облаков (PDF).
T - Температура воздуха - температура, измеренная на высоте 2 м над землей.
Td - Температура точки росы - температура, при понижении до которой содержащийся в воздухе водяной пар достигнет насыщения.
f - Относительная влажность воздуха - влажноcть воздуха, измеренная на высоте 2 м над землей.
Te - Эффективная температура - температура, которую ощущает одетый по сезону человек в тени. Характеристика душности погоды. При расчете учитывается влияние влажности воздуха и скорости ветра на теплоощущения человека.
Tes - Эффективная температура на солнце - температура, которую ощущает человек, с поправкой на солнечный нагрев. Характеристика знойности погоды. Зависит от высоты солнца над горизонтом, облачности и скорости ветра. Ночью, в пасмурную погоду, а также при ветре 12 м/с и более поправка равна нулю.
P - Атмосферное давление - приведенное к уровню моря атмосферное давление.
Po - Атмосферное давление - измеренное на уровне метеостанции атмосферное давление.
Tmin - Минимальная температура - минимум температуры воздуха на высоте 2 м над землей.
Tmax - Максимальная температура - максимум температуры воздуха на высоте 2 м над землей.
R - Количество осадков - Количество выпавших осадков за период времени, мм. При наведении курсора мыши на число - период времени, за который выпало указанное количество осадков.
R24 - Количество осадков - Количество выпавших осадков за 24 часа, мм.
S - Снежный покров - Высота снежного покрова, см. При наведении курсора мыши на число - состояние снежного покрова и степень покрытия местности в баллах.